Back to catalog

ATLAS 5 CENTAUR DEB

LostHEO
NORAD 46861·DEBRIS·🇺🇸 United States

Launched Oct 17, 2018 from Cape Canaveral Space Force Station

Loading…

Next Passes (next 24 hours)

TLE

StaleSource: Space-Track

Epoch: Jan 16, 2024, 09:31 UTC

1 46861U 18079DS  24016.39672487 -.00000066  00000-0  00000+0 0  9991
2 46861  11.4014 118.8939 4839548 154.7231 239.9369  1.78305214 21208

Track ATLAS 5 CENTAUR DEB in real time with AllMySat

Download on the App Store